Weather History for South Hill, VA

Change the Weather History Date:

Sunday, November 10, 2013

  Actual Average (KEMV) Record (KEMV)
Temperature  
Mean Temperature 58 °F -  
Max Temperature 71 °F 65 °F 82 °F (1986)
Min Temperature 44 °F 39 °F 28 °F (2004)
Degree Days  
Heating Degree Days 8    
Growing Degree Days 8 (Base 50)    
Moisture  
Dew Point 35 °F    
Average Humidity 48    
Maximum Humidity 76    
Minimum Humidity 25    
Precipitation  
Precipitation 0.00 in - - ()
Sea Level Pressure  
Sea Level Pressure 30.17 in    
Wind  
Wind Speed 8 mph (West)    
Max Wind Speed 16 mph    
Max Gust Speed 28 mph    
Visibility 10 miles    
Events      
Averages and records for this station are not official NWS values.
T = Trace of Precipitation, MM = Missing Value Source: NWS Daily Summary

Daily Weather History Graph

Daily Weather History Graph

Search for Another Location

Airport:

Trip Planner

Search our weather history database for the weather conditions in past years. The results will help you decide how hot, cold, wet, or windy it might be!

Date:

Astronomy

Nov. 10, 2013 Rise Set
Actual Time 6:45 AM EST 5:06 PM EST
Civil Twilight 6:17 AM EST 5:33 PM EST
Nautical Twilight 5:46 AM EST 6:04 PM EST
Astronomical Twilight 5:16 AM EST 6:35 PM EST
Moon 1:00 PM EST (11/10) No Moon Set
Length of Visible Light 11h 16m
Length of Day
10h 21m
First Quarter, 55% of the Moon is Illuminated
Nov 10
First Quarter
Nov 17
Full
Nov 25
Last Quarter
Dec 2
New
Dec 9
First Quarter

Hourly Weather History & Observations

Time (EST) Temp. Windchill Dew Point Humidity Pressure Visibility Wind Dir Wind Speed Gust Speed Precip Events Conditions
12:15 AM 46.4 °F 41.5 °F 35.6 °F 66% 30.19 in 10.0 mi SSW 10.4 mph - N/A   Clear
12:35 AM 46.4 °F 42.4 °F 35.6 °F 66% 30.18 in 10.0 mi SSW 8.1 mph - N/A   Clear
12:55 AM 46.4 °F 41.9 °F 35.6 °F 66% 30.18 in 10.0 mi SSW 9.2 mph - N/A   Clear
1:15 AM 46.4 °F 41.9 °F 35.6 °F 66% 30.19 in 10.0 mi SW 9.2 mph - N/A   Clear
1:35 AM 48.2 °F - 35.6 °F 62% 30.18 in 10.0 mi SW 8.1 mph - N/A   Clear
1:55 AM 48.2 °F - 35.6 °F 62% 30.18 in 10.0 mi SW 6.9 mph - N/A   Clear
2:15 AM 48.2 °F - 35.6 °F 62% 30.17 in 10.0 mi SW 6.9 mph - N/A   Clear
2:35 AM 48.2 °F - 35.6 °F 62% 30.17 in 10.0 mi SW 5.8 mph - N/A   Clear
2:55 AM 46.4 °F 42.9 °F 35.6 °F 66% 30.17 in 10.0 mi SW 6.9 mph - N/A   Clear
3:15 AM 46.4 °F 42.9 °F 35.6 °F 66% 30.17 in 10.0 mi SW 6.9 mph - N/A   Clear
3:35 AM 46.4 °F 43.5 °F 37.4 °F 71% 30.17 in 10.0 mi SW 5.8 mph - N/A   Clear
3:55 AM 44.6 °F 40.7 °F 37.4 °F 76% 30.17 in 10.0 mi SW 6.9 mph - N/A   Clear
4:15 AM 46.4 °F 42.9 °F 37.4 °F 71% 30.17 in 10.0 mi SW 6.9 mph - N/A   Clear
4:35 AM 44.6 °F 41.4 °F 37.4 °F 76% 30.18 in 10.0 mi SW 5.8 mph - N/A   Clear
4:55 AM 44.6 °F 41.4 °F 37.4 °F 76% 30.18 in 10.0 mi SW 5.8 mph - N/A   Clear
5:15 AM 46.4 °F 42.9 °F 37.4 °F 71% 30.18 in 10.0 mi SW 6.9 mph - N/A   Clear
5:35 AM 46.4 °F 43.5 °F 35.6 °F 66% 30.18 in 10.0 mi SW 5.8 mph - N/A   Clear
5:55 AM 46.4 °F 43.5 °F 37.4 °F 71% 30.19 in 10.0 mi SW 5.8 mph - N/A   Clear
6:15 AM 44.6 °F 41.4 °F 35.6 °F 71% 30.19 in 10.0 mi SW 5.8 mph - N/A   Clear
6:35 AM 46.4 °F 43.5 °F 35.6 °F 66% 30.19 in 10.0 mi WSW 5.8 mph - N/A   Clear
6:55 AM 46.4 °F 42.9 °F 37.4 °F 71% 30.19 in 10.0 mi SW 6.9 mph - N/A   Clear
7:15 AM 46.4 °F 44.3 °F 37.4 °F 71% 30.20 in 10.0 mi WSW 4.6 mph - N/A   Clear
7:35 AM 46.4 °F 43.5 °F 37.4 °F 71% 30.20 in 10.0 mi WSW 5.8 mph - N/A   Clear
7:55 AM 50.0 °F - 37.4 °F 62% 30.21 in 10.0 mi WSW 6.9 mph - N/A   Clear
8:15 AM 51.8 °F - 37.4 °F 58% 30.21 in 10.0 mi SW 4.6 mph - N/A   Clear
8:35 AM 53.6 °F - 37.4 °F 54% 30.21 in 10.0 mi WSW 6.9 mph - N/A   Clear
8:55 AM 55.4 °F - 37.4 °F 51% 30.20 in 10.0 mi WSW 9.2 mph - N/A   Clear
9:15 AM 57.2 °F - 39.2 °F 51% 30.20 in 10.0 mi WSW 9.2 mph - N/A   Clear
9:35 AM 59.0 °F - 39.2 °F 48% 30.19 in 10.0 mi WSW 6.9 mph - N/A   Clear
9:55 AM 62.6 °F - 41.0 °F 45% 30.19 in 10.0 mi WSW 9.2 mph - N/A   Clear
10:15 AM 64.4 °F - 41.0 °F 42% 30.18 in 10.0 mi WSW 10.4 mph 16.1 mph N/A   Clear
10:35 AM 64.4 °F - 41.0 °F 42% 30.17 in 10.0 mi WSW 6.9 mph 16.1 mph N/A   Clear
10:55 AM 64.4 °F - 41.0 °F 42% 30.17 in 10.0 mi WSW 8.1 mph - N/A   Clear
11:15 AM 66.2 °F - 42.8 °F 43% 30.15 in 10.0 mi SW 12.7 mph 18.4 mph N/A   Clear
11:35 AM 66.2 °F - 42.8 °F 43% 30.14 in 10.0 mi West 9.2 mph - N/A   Clear
11:55 AM 68.0 °F - 42.8 °F 40% 30.13 in 10.0 mi WSW 16.1 mph 23.0 mph N/A   Clear
12:15 PM 69.8 °F - 39.2 °F 33% 30.11 in 10.0 mi WSW 13.8 mph 23.0 mph N/A   Clear
12:35 PM 69.8 °F - 39.2 °F 33% 30.11 in 10.0 mi West 16.1 mph 27.6 mph N/A   Clear
12:55 PM 69.8 °F - 39.2 °F 33% 30.10 in 10.0 mi West 13.8 mph 23.0 mph N/A   Clear
1:15 PM 69.8 °F - 39.2 °F 33% 30.09 in 10.0 mi West 10.4 mph 23.0 mph N/A   Clear
1:35 PM 69.8 °F - 39.2 °F 33% 30.09 in 10.0 mi WSW 11.5 mph 21.9 mph N/A   Clear
1:55 PM 69.8 °F - 39.2 °F 33% 30.09 in 10.0 mi WSW 13.8 mph 26.5 mph N/A   Clear
2:15 PM 69.8 °F - 39.2 °F 33% 30.09 in 10.0 mi West 13.8 mph 24.2 mph N/A   Clear
2:35 PM 71.6 °F - 39.2 °F 31% 30.08 in 10.0 mi WSW 11.5 mph - N/A   Clear
2:55 PM 71.6 °F - 39.2 °F 31% 30.08 in 10.0 mi WSW 9.2 mph 17.3 mph N/A   Clear
3:15 PM 71.6 °F - 39.2 °F 31% 30.08 in 10.0 mi WSW 12.7 mph 19.6 mph N/A   Clear
3:35 PM 71.6 °F - 39.2 °F 31% 30.08 in 10.0 mi WSW 9.2 mph 16.1 mph N/A   Clear
3:55 PM 71.6 °F - 35.6 °F 27% 30.08 in 10.0 mi WNW 8.1 mph 19.6 mph N/A   Clear
4:15 PM 69.8 °F - 33.8 °F 27% 30.09 in 10.0 mi West 9.2 mph 16.1 mph N/A   Clear
4:35 PM 69.8 °F - 32.0 °F 25% 30.10 in 10.0 mi West 10.4 mph 23.0 mph N/A   Clear
4:55 PM 68.0 °F - 32.0 °F 26% 30.11 in 10.0 mi West 3.5 mph - N/A   Clear
5:15 PM 66.2 °F - 32.0 °F 28% 30.12 in 10.0 mi WNW 4.6 mph - N/A   Clear
5:35 PM 64.4 °F - 30.2 °F 28% 30.13 in 10.0 mi WNW 4.6 mph - N/A   Clear
5:55 PM 62.6 °F - 30.2 °F 30% 30.14 in 10.0 mi WNW 3.5 mph - N/A   Clear
6:15 PM 62.6 °F - 30.2 °F 30% 30.16 in 10.0 mi WNW 3.5 mph - N/A   Clear
6:35 PM 62.6 °F - 28.4 °F 27% 30.16 in 10.0 mi WNW 4.6 mph - N/A   Clear
6:55 PM 62.6 °F - 28.4 °F 27% 30.17 in 10.0 mi WNW 3.5 mph - N/A   Clear
7:15 PM 60.8 °F - 28.4 °F 29% 30.18 in 10.0 mi WNW 3.5 mph - N/A   Clear
7:35 PM 59.0 °F - 28.4 °F 31% 30.20 in 10.0 mi NW 3.5 mph - N/A   Clear
7:55 PM 57.2 °F - 28.4 °F 33% 30.21 in 10.0 mi NW 3.5 mph - N/A   Clear
8:15 PM 57.2 °F - 28.4 °F 33% 30.22 in 10.0 mi NNW 4.6 mph - N/A   Clear
8:35 PM 57.2 °F - 28.4 °F 33% 30.23 in 10.0 mi NNW 5.8 mph - N/A   Clear
8:55 PM 53.6 °F - 28.4 °F 38% 30.24 in 10.0 mi NNW 6.9 mph - N/A   Clear
9:15 PM 53.6 °F - 30.2 °F 41% 30.25 in 10.0 mi North 8.1 mph - N/A   Clear
9:35 PM 53.6 °F - 30.2 °F 41% 30.26 in 10.0 mi North 9.2 mph - N/A   Clear
9:55 PM 53.6 °F - 30.2 °F 41% 30.27 in 10.0 mi North 5.8 mph - N/A   Clear
10:15 PM 50.0 °F - 30.2 °F 47% 30.28 in 10.0 mi North 6.9 mph - N/A   Clear
10:35 PM 50.0 °F - 30.2 °F 47% 30.29 in 10.0 mi North 5.8 mph - N/A   Clear
10:55 PM 48.2 °F - 30.2 °F 50% 30.29 in 10.0 mi North 4.6 mph - N/A   Clear
11:15 PM 48.2 °F - 30.2 °F 50% 30.29 in 10.0 mi North 8.1 mph - N/A   Clear
11:35 PM 48.2 °F - 30.2 °F 50% 30.29 in 10.0 mi North 8.1 mph - N/A   Clear
11:55 PM 48.2 °F - 30.2 °F 50% 30.29 in 10.0 mi North 9.2 mph - N/A   Clear